Regional Weather Roundup
Issued by NWS

Home | Current Version | Previous Version | Text Only | Print | Product List | Glossary Off
Versions: 1 2 3 4 5 6 7 8 9 10 11 12 13 14 15 16 17 18 19 20 21 22 23 24 25 26 27 28 29 30 31 32 33 34 35 36 37 38 39 40 41 42 43 44 45 46 47 48 49 50

591
ASUS44 KMEG 251700
RWRTN
TENNESSEE HOURLY STATE WEATHER ROUNDUP
NATIONAL WEATHER SERVICE MEMPHIS TN
1200 PM CDT MON JUL 25 2016

TNZ002-004-019-021-049-052-054-088>092-251800-
WEST TENNESSEE

CITY           SKY/WX    TMP DP  RH WIND       PRES   REMARKS
MEMPHIS INTL   MOSUNNY   92  75  57 S7        30.01F HX 103
NWS MEMPHIS      N/A     91 N/A N/A MISG        N/A
JACKSON        MOSUNNY   92  76  59 SW10      30.03F HX 104
DYERSBURG      MOSUNNY  N/A N/A N/A MISG        N/A
PARIS          MOSUNNY   90  77  66 SW9       30.04F HX 102
$$

TNZ008-025-027-028-033-062-065-066-251800-
NORTH MIDDLE TENNESSEE

CITY           SKY/WX    TMP DP  RH WIND       PRES   REMARKS
NASHVILLE      LGT RAIN  89  75  63 NW6       30.05S HX  99
CLARKSVILLE    PTSUNNY   90  75  61 SW9       30.04R HX 100
CROSSVILLE     SUNNY     85  71  63 VRB7      30.13F HX  90
$$

TNZ061-075-076-078-094-096-097-251800-
SOUTH MIDDLE TENNESSEE

CITY           SKY/WX    TMP DP  RH WIND       PRES   REMARKS
$$

TNZ017-018-042-046-047-251800-
NORTHEAST TENNESSEE

CITY           SKY/WX    TMP DP  RH WIND       PRES   REMARKS
TRI CITIES     PTSUNNY   89  71  55 NW9       30.09F HX  95
$$

TNZ012-013-036-069-073-074-251800-
CENTRAL EAST TENNESSEE

CITY           SKY/WX    TMP DP  RH WIND       PRES   REMARKS
KNOXVILLE      MOSUNNY   92  72  51 VRB3      30.05F HX  99
OAK RIDGE      MOSUNNY   93  70  46 CALM      30.07F HX  99
GATLINBURG       N/A     93  70  46 W9        30.05F HX  99
$$

TNZ083-085-099-251800-
SOUTHEAST TENNESSEE

CITY           SKY/WX    TMP DP  RH WIND       PRES   REMARKS
CHATTANOOGA    MOSUNNY   94  68  42 W5        30.05F HX  98
$$

SKY/WX REPORTED AS FAIR MEANS FEW OR NO CLOUDS BELOW
12 THOUSAND FEET.





USA.gov is the U.S. government's official web portal to all federal, state and local government web resources and services.